Voltar ao catálogo

PEGASUS DEB

AtivoPO
NORAD 39321·DEBRIS·🇺🇸 United States

Lançado May 19, 1994 de Vandenberg Space Force Base

Loading…

Próximas Passagens (próximas 24 horas)

TLE

AtualizadoSource: Space-Track

Época: Sep 14, 2026, 05:19 UTC

1 39321U 94029AFG 26257.22191703  .00000545  00000-0  18359-3 0  9992
2 39321  82.2844  77.7084 0431681 275.9672  79.2468 13.94348026666657

Acompanhe PEGASUS DEB em tempo real com AllMySat

Download on the App Store